Find Starlink 30548

NORAD ID: 58046 Int'l Des: 2023-156 Owner: SPXS Country: US Constellation: starlink operational
LEOCIRCULAR

現在のビュー

3D地球を読み込み中...

About Starlink 30548

Starlink 30548 (NORAD 58046) is a starlink constellation satellite (v2 mini) launched Oct 9, 2023 by SPXS of US. It operates in LEO, CIRCULAR orbit with a mass of 730.00 kg.

Starlink 30548について

説明を読み込み中...

次回通過

Passes for default location (London). Set your location on the main map for personalized predictions.

高度履歴

Loading altitude history...

軌道要素

1 58046U 23156U 26161.10163145 .00000910 00000-0 38053-4 0 9990
2 58046 53.1620 98.0892 0001149 102.6912 257.4219 15.34396742149147
Epoch: Jun 10, 2026 • Age: 11 hours

現在のステータス

高度 482.0 km
速度 7.62 km/s
衛星直下点 -53.19°S, 82.49°W
打ち上げ日 Oct 9, 2023
運用期間 2.6 years
タイプ internet

技術仕様

分類 Payload
質量 730.00 kg
乾燥質量 700.00 kg
総質量 730.00 kg
長さ 0.30 m
直径 4.10 m
スパン 29.00 m
形状 Box + pan
製造者 SPXS
バスタイプ Starlink V2M
フェーズステータス In Orbit
所有者/国 SPXS/US

Most Searched